CW6427 Weather Reports


Display with metric or nautical units.
time (UTC)temp
F
wind
direction
speed
MPH
gust
MPH
rain 1hr
in
rain 24hr
in
rain mn
in
humidity
%
barometer
mb
20260507114907 39 288 1.0 8.0 0.00 0.30 0.00 85 1013.5
20260507113906 38 153 2.0 4.0 0.00 0.31 0.00 92 1013.3
20260507112836 37 154 1.0 4.0 0.00 0.32 0.00 93 1013.1
20260507105906 36 76 0.0 3.0 0.00 0.37 0.00 94 1013.1
20260507104905 35 278 0.0 0.0 0.00 0.39 0.00 95 1013.2
20260507103905 34 278 0.0 0.0 0.00 0.40 0.00 94 1012.9
20260507102905 33 278 0.0 0.0 0.00 0.40 0.00 94 1012.9
20260507101905 33 284 0.0 0.0 0.00 0.42 0.00 93 1012.5
20260507100905 33 284 0.0 0.0 0.00 0.43 0.00 93 1012.6
20260507095905 33 284 0.0 0.0 0.00 0.44 0.00 92 1012.4
20260507094905 33 284 0.0 0.0 0.00 0.44 0.00 91 1012.2
20260507093905 34 296 0.0 0.0 0.00 0.45 0.00 90 1012.2
20260507092904 34 296 0.0 2.0 0.00 0.45 0.00 90 1012.3
20260507091904 34 297 0.0 2.0 0.00 0.46 0.00 90 1012.5
20260507085904 36 297 0.0 4.0 0.00 0.47 0.00 86 1012.8
20260507084904 36 300 1.0 5.0 0.00 0.48 0.00 86 1012.8
20260507083904 36 286 2.0 5.0 0.00 0.48 0.00 86 1012.7
20260507082903 37 328 3.0 8.0 0.00 0.49 0.00 85 1012.8
20260507081903 37 305 4.0 6.0 0.00 0.49 0.00 86 1012.7
20260507075903 37 305 2.0 6.0 0.00 0.49 0.00 85 1012.7
20260507074903 38 273 2.0 5.0 0.00 0.49 0.00 86 1012.5
20260507073902 38 300 3.0 6.0 0.00 0.49 0.00 86 1012.6
20260507070902 38 293 7.0 8.0 0.00 0.49 0.00 87 1012.7
20260507064902 39 299 2.0 11.0 0.00 0.49 0.00 88 1012.9
20260507063901 39 307 4.0 11.0 0.00 0.49 0.00 89 1012.9
20260507062901 39 302 7.0 15.0 0.00 0.49 0.00 90 1013.0
20260507061901 39 302 15.0 15.0 0.00 0.49 0.00 90 1012.9
20260507060900 39 304 13.0 14.0 0.00 0.49 0.00 92 1012.9
20260507055900 39 294 8.0 13.0 0.00 0.49 0.00 93 1012.8
20260507054900 40 306 10.0 11.0 0.00 0.49 0.00 93 1013.0
20260507053900 40 308 8.0 13.0 0.00 0.49 0.00 93 1012.9
20260507052900 40 321 10.0 12.0 0.00 0.49 0.00 94 1013.0
20260507051900 41 286 10.0 15.0 0.00 0.49 0.00 95 1013.0
20260507050859 41 292 10.0 14.0 0.00 0.49 0.00 95 1013.0
20260507045900 41 300 8.0 12.0 0.00 0.49 0.00 96 1012.9
20260507043859 42 337 6.0 15.0 0.00 0.49 0.00 96 1012.9
20260507042859 42 323 4.0 16.0 0.00 0.49 0.00 96 1012.7
20260507040859 43 338 6.0 11.0 0.00 0.49 0.00 96 1012.4
20260507035858 43 311 9.0 9.0 0.00 0.49 0.49 97 1012.2
20260507034858 43 14 2.0 5.0 0.00 0.49 0.49 97 1012.2
20260507033858 43 326 4.0 8.0 0.00 0.49 0.49 97 1012.3
20260507032858 43 302 7.0 8.0 0.00 0.49 0.49 96 1012.3
20260507031858 43 297 2.0 4.0 0.00 0.49 0.49 96 1012.3
20260507030858 43 292 3.0 7.0 0.00 0.49 0.49 97 1012.5
20260507025858 42 302 1.0 7.0 0.00 0.50 0.49 97 1012.4
20260507023857 42 211 1.0 3.0 0.00 0.54 0.49 98 1012.2
20260507022857 42 209 0.0 2.0 0.00 0.55 0.49 98 1012.3
20260507021857 42 209 0.0 3.0 0.00 0.55 0.49 98 1012.3
20260507020857 42 243 1.0 2.0 0.00 0.55 0.49 98 1012.4
20260507015856 42 243 1.0 2.0 0.00 0.55 0.49 98 1012.4
20260507014856 42 246 0.0 1.0 0.00 0.55 0.49 97 1012.3
20260507013856 42 246 1.0 1.0 0.00 0.55 0.49 97 1012.4
20260507012856 42 246 0.0 1.0 0.00 0.55 0.49 97 1012.4
20260507010856 42 246 0.0 1.0 0.00 0.55 0.49 98 1012.4
20260507005855 42 246 0.0 1.0 0.00 0.55 0.49 98 1012.2
20260507004855 42 246 1.0 2.0 0.00 0.55 0.49 98 1012.3
20260507003855 42 242 0.0 2.0 0.00 0.55 0.49 98 1012.0
20260507002855 42 242 0.0 4.0 0.00 0.55 0.49 98 1012.1
20260507001855 42 162 4.0 6.0 0.00 0.55 0.49 98 1011.7
20260507000855 43 113 0.0 3.0 0.00 0.55 0.49 98 1012.0
20260506235854 42 107 2.0 2.0 0.00 0.56 0.49 98 1011.8
20260506234854 42 105 0.0 0.0 0.00 0.56 0.49 98 1011.6
20260506233854 43 105 0.0 0.0 0.00 0.56 0.49 98 1011.4
20260506232854 43 105 0.0 3.0 0.00 0.58 0.49 98 1011.1
20260506231854 43 105 2.0 3.0 0.00 0.58 0.49 98 1010.7
20260506230854 43 19 0.0 3.0 0.00 0.58 0.49 98 1010.8
20260506225853 43 19 2.0 5.0 0.00 0.58 0.49 98 1010.7
20260506224853 43 320 2.0 6.0 0.00 0.58 0.49 98 1010.9
20260506223853 43 302 1.0 8.0 0.00 0.58 0.49 98 1011.0
20260506221853 43 355 3.0 6.0 0.00 0.58 0.49 99 1010.9
20260506220853 43 296 1.0 8.0 0.00 0.58 0.49 98 1010.8
20260506215852 43 344 3.0 8.0 0.00 0.58 0.49 99 1010.7
20260506213852 42 318 5.0 10.0 0.00 0.58 0.49 99 1010.5
20260506212852 43 298 8.0 10.0 0.00 0.58 0.49 99 1010.7
20260506211852 43 346 5.0 12.0 0.00 0.58 0.49 99 1010.6
20260506210852 43 350 8.0 12.0 0.00 0.58 0.49 99 1010.4
20260506205851 43 315 6.0 12.0 0.00 0.58 0.49 99 1010.2
20260506204851 43 318 6.0 12.0 0.00 0.58 0.49 99 1010.2
20260506203851 42 5 5.0 13.0 0.00 0.58 0.49 99 1009.8
20260506201851 43 313 6.0 14.0 0.00 0.59 0.49 99 1009.6
20260506200850 43 11 4.0 14.0 0.01 0.59 0.49 99 1009.3
20260506194850 43 317 5.0 14.0 0.02 0.59 0.49 99 1009.2
20260506193850 43 318 9.0 15.0 0.02 0.59 0.49 99 1009.2
20260506191850 44 312 13.0 14.0 0.02 0.59 0.49 99 1009.1
20260506185849 44 336 8.0 13.0 0.01 0.58 0.48 99 1009.1
20260506184849 44 325 10.0 13.0 0.00 0.57 0.47 99 1008.9
20260506183849 44 306 5.0 11.0 0.01 0.57 0.47 100 1008.8
20260506182849 44 340 5.0 10.0 0.01 0.62 0.47 100 1008.6
20260506181849 44 303 3.0 9.0 0.02 0.64 0.47 100 1008.6
20260506180849 45 324 4.0 8.0 0.02 0.64 0.47 100 1008.5
20260506175848 45 307 4.0 5.0 0.03 0.64 0.47 100 1008.4
20260506174848 44 340 1.0 7.0 0.03 0.64 0.47 100 1008.1
20260506173848 44 22 1.0 4.0 0.02 0.63 0.46 100 1008.1
20260506172848 44 38 1.0 5.0 0.02 0.63 0.46 100 1008.0
20260506171847 43 36 3.0 7.0 0.02 0.62 0.45 99 1007.9
20260506170847 43 350 3.0 5.0 0.02 0.62 0.45 99 1007.9
20260506165847 43 28 2.0 6.0 0.01 0.61 0.44 100 1007.9
20260506164847 43 355 5.0 6.0 0.01 0.61 0.44 100 1007.9
20260506162847 43 13 3.0 7.0 0.02 0.61 0.44 99 1007.9
20260506161846 43 17 3.0 7.0 0.01 0.60 0.43 99 1007.9
20260506155846 43 5 3.0 5.0 0.02 0.60 0.43 99 1008.1
20260506154846 43 44 2.0 4.0 0.03 0.60 0.43 100 1007.9
20260506153846 43 31 1.0 4.0 0.04 0.60 0.43 99 1008.1
20260506152845 43 13 2.0 7.0 0.04 0.59 0.42 99 1008.1
20260506151846 43 22 5.0 7.0 0.04 0.59 0.42 99 1007.9
20260506150845 43 14 1.0 5.0 0.05 0.59 0.42 99 1007.7
20260506145845 43 5 5.0 7.0 0.05 0.58 0.41 99 1007.7
20260506144845 42 355 2.0 8.0 0.05 0.57 0.40 99 1007.6
20260506143845 43 331 5.0 8.0 0.05 0.56 0.39 99 1007.8
20260506142845 42 350 4.0 8.0 0.05 0.55 0.38 99 1007.6
20260506141844 42 5 4.0 10.0 0.06 0.55 0.38 99 1007.6
20260506140844 43 355 6.0 8.0 0.07 0.54 0.37 99 1007.7
20260506135844 43 5 4.0 8.0 0.07 0.53 0.36 99 1007.9
20260506134844 43 360 5.0 11.0 0.08 0.52 0.35 99 1007.7
20260506133844 43 15 3.0 8.0 0.09 0.51 0.34 99 1007.8
20260506132844 43 14 7.0 8.0 0.09 0.50 0.33 99 1008.0
20260506131843 43 355 3.0 9.0 0.10 0.49 0.32 99 1007.9
20260506130843 43 351 4.0 8.0 0.09 0.47 0.30 99 1007.9
20260506125843 43 341 3.0 7.0 0.09 0.46 0.29 99 1008.0
20260506124843 43 360 4.0 5.0 0.08 0.44 0.27 99 1007.8
20260506123843 43 11 3.0 6.0 0.07 0.42 0.25 99 1007.7
20260506122842 43 341 2.0 6.0 0.07 0.41 0.24 99 1007.8
20260506121842 43 346 2.0 6.0 0.06 0.39 0.22 99 1007.9
20260506120842 43 5 5.0 7.0 0.08 0.38 0.21 99 1008.0